Year,Month,Day,Hour,Minute,Value (Times are PST for temperature in C)
2012,04,10,00,00,11.50
2012,04,10,00,01,11.50
2012,04,10,00,02,11.50
2012,04,10,00,03,11.50
2012,04,10,00,04,11.50
2012,04,10,00,05,11.50
2012,04,10,00,06,11.50
2012,04,10,00,07,11.50
2012,04,10,00,08,11.50
2012,04,10,00,09,11.50
2012,04,10,00,10,11.50
2012,04,10,00,11,11.50
2012,04,10,00,12,11.50
2012,04,10,00,13,11.50
2012,04,10,00,14,11.50
2012,04,10,00,15,11.50
2012,04,10,00,16,11.50
2012,04,10,00,17,11.50
2012,04,10,00,18,11.40
2012,04,10,00,19,11.40
2012,04,10,00,20,11.40
2012,04,10,00,21,11.40
2012,04,10,00,22,11.40
2012,04,10,00,23,11.40
2012,04,10,00,24,11.40
2012,04,10,00,25,11.40
2012,04,10,00,26,11.40
2012,04,10,00,27,11.40
2012,04,10,00,28,11.30
2012,04,10,00,29,11.30
2012,04,10,00,30,11.30
2012,04,10,00,31,11.30
2012,04,10,00,32,11.30
2012,04,10,00,33,11.30
2012,04,10,00,34,11.20
2012,04,10,00,35,11.20
2012,04,10,00,36,11.20
2012,04,10,00,37,11.20
2012,04,10,00,38,11.20
2012,04,10,00,39,11.20
2012,04,10,00,40,11.10
2012,04,10,00,41,11.10
2012,04,10,00,42,11.10
2012,04,10,00,43,11.10
2012,04,10,00,44,11.10
2012,04,10,00,45,11.10
2012,04,10,00,46,11.10
2012,04,10,00,47,11.10
2012,04,10,00,48,11.10
2012,04,10,00,49,11.10
2012,04,10,00,50,11.10
2012,04,10,00,51,11.10
2012,04,10,00,52,11.10
2012,04,10,00,53,11.10
2012,04,10,00,54,11.10
2012,04,10,00,55,11.10
2012,04,10,00,56,11.10
2012,04,10,00,57,11.10
2012,04,10,00,58,11.10
2012,04,10,00,59,11.10
2012,04,10,01,00,11.10
2012,04,10,01,01,11.10
2012,04,10,01,02,11.00
2012,04,10,01,03,11.00
2012,04,10,01,04,11.00
2012,04,10,01,05,11.00
2012,04,10,01,06,11.00
2012,04,10,01,07,11.00
2012,04,10,01,08,11.00
2012,04,10,01,09,10.90
2012,04,10,01,10,10.90
2012,04,10,01,11,10.90
2012,04,10,01,12,10.90
2012,04,10,01,13,10.90
2012,04,10,01,14,10.90
2012,04,10,01,15,10.90
2012,04,10,01,16,10.90
2012,04,10,01,17,10.90
2012,04,10,01,18,10.90
2012,04,10,01,19,10.90
2012,04,10,01,20,10.80
2012,04,10,01,21,10.80
2012,04,10,01,22,10.80
2012,04,10,01,23,10.80
2012,04,10,01,24,10.80
2012,04,10,01,25,10.80
2012,04,10,01,26,10.80
2012,04,10,01,27,10.80
2012,04,10,01,28,10.70
2012,04,10,01,29,10.70
2012,04,10,01,30,10.70
2012,04,10,01,31,10.70
2012,04,10,01,32,10.70
2012,04,10,01,33,10.70
2012,04,10,01,34,10.70
2012,04,10,01,35,10.60
2012,04,10,01,36,10.60
2012,04,10,01,37,10.60
2012,04,10,01,38,10.60
2012,04,10,01,39,10.60
2012,04,10,01,40,10.60
2012,04,10,01,41,10.60
2012,04,10,01,42,10.50
2012,04,10,01,43,10.50
2012,04,10,01,44,10.50
2012,04,10,01,45,10.50
2012,04,10,01,46,10.50
2012,04,10,01,47,10.50
2012,04,10,01,48,10.50
2012,04,10,01,49,10.60
2012,04,10,01,50,10.60
2012,04,10,01,51,10.60
2012,04,10,01,52,10.60
2012,04,10,01,53,10.60
2012,04,10,01,54,10.60
2012,04,10,01,55,10.60
2012,04,10,01,56,10.60
2012,04,10,01,57,10.60
2012,04,10,01,58,10.60
2012,04,10,01,59,10.60
2012,04,10,02,00,10.60
2012,04,10,02,01,10.60
2012,04,10,02,02,10.60
2012,04,10,02,03,10.60
2012,04,10,02,04,10.60
2012,04,10,02,05,10.60
2012,04,10,02,06,10.60
2012,04,10,02,07,10.60
2012,04,10,02,08,10.60
2012,04,10,02,09,10.50
2012,04,10,02,10,10.50
2012,04,10,02,11,10.50
2012,04,10,02,12,10.40
2012,04,10,02,13,10.40
2012,04,10,02,14,10.40
2012,04,10,02,15,10.40
2012,04,10,02,16,10.30
2012,04,10,02,17,10.30
2012,04,10,02,18,10.30
2012,04,10,02,19,10.20
2012,04,10,02,20,10.20
2012,04,10,02,21,10.20
2012,04,10,02,22,10.20
2012,04,10,02,23,10.20
2012,04,10,02,24,10.10
2012,04,10,02,25,10.10
2012,04,10,02,26,10.10
2012,04,10,02,27,10.10
2012,04,10,02,28,10.10
2012,04,10,02,29,10.10
2012,04,10,02,30,10.10
2012,04,10,02,31,10.10
2012,04,10,02,32,10.10
2012,04,10,02,33,10.10
2012,04,10,02,34,10.10
2012,04,10,02,35,10.10
2012,04,10,02,36,10.10
2012,04,10,02,37,10.10
2012,04,10,02,38,10.00
2012,04,10,02,39,10.00
2012,04,10,02,40,10.00
2012,04,10,02,41,10.00
2012,04,10,02,42,10.00
2012,04,10,02,43,10.00
2012,04,10,02,44,9.90
2012,04,10,02,45,9.90
2012,04,10,02,46,9.90
2012,04,10,02,47,9.90
2012,04,10,02,48,9.90
2012,04,10,02,49,9.90
2012,04,10,02,50,9.90
2012,04,10,02,51,9.90
2012,04,10,02,52,9.90
2012,04,10,02,53,9.90
2012,04,10,02,54,9.90
2012,04,10,02,55,9.80
2012,04,10,02,56,9.80
2012,04,10,02,57,9.80
2012,04,10,02,58,9.80
2012,04,10,02,59,9.80
2012,04,10,03,00,9.80
2012,04,10,03,01,9.80
2012,04,10,03,02,9.70
2012,04,10,03,03,9.70
2012,04,10,03,04,9.70
2012,04,10,03,05,9.70
2012,04,10,03,06,9.70
2012,04,10,03,07,9.70
2012,04,10,03,08,9.70
2012,04,10,03,09,9.80
2012,04,10,03,10,9.80
2012,04,10,03,11,9.80
2012,04,10,03,12,9.80
2012,04,10,03,13,9.80
2012,04,10,03,14,9.70
2012,04,10,03,15,9.70
2012,04,10,03,16,9.70
2012,04,10,03,17,9.70
2012,04,10,03,18,9.70
2012,04,10,03,19,9.70
2012,04,10,03,20,9.70
2012,04,10,03,21,9.70
2012,04,10,03,22,9.70
2012,04,10,03,23,9.60
2012,04,10,03,24,9.60
2012,04,10,03,25,9.60
2012,04,10,03,26,9.60
2012,04,10,03,27,9.50
2012,04,10,03,28,9.50
2012,04,10,03,29,9.50
2012,04,10,03,30,9.50
2012,04,10,03,31,9.40
2012,04,10,03,32,9.40
2012,04,10,03,33,9.40
2012,04,10,03,34,9.40
2012,04,10,03,35,9.40
2012,04,10,03,36,9.40
2012,04,10,03,37,9.30
2012,04,10,03,38,9.30
2012,04,10,03,39,9.30
2012,04,10,03,40,9.30
2012,04,10,03,41,9.30
2012,04,10,03,42,9.30
2012,04,10,03,43,9.30
2012,04,10,03,44,9.30
2012,04,10,03,45,9.30
2012,04,10,03,46,9.30
2012,04,10,03,47,9.30
2012,04,10,03,48,9.30
2012,04,10,03,49,9.30
2012,04,10,03,50,9.30
2012,04,10,03,51,9.30
2012,04,10,03,52,9.30
2012,04,10,03,53,9.20
2012,04,10,03,54,9.20
2012,04,10,03,55,9.20
2012,04,10,03,56,9.20
2012,04,10,03,57,9.20
2012,04,10,03,58,9.20
2012,04,10,03,59,9.20
2012,04,10,04,00,9.20
2012,04,10,04,01,9.10
2012,04,10,04,02,9.10
2012,04,10,04,03,9.10
2012,04,10,04,04,9.00
2012,04,10,04,08,8.90
2012,04,10,04,11,8.90
2012,04,10,04,12,8.90
2012,04,10,04,13,8.90
2012,04,10,04,14,8.80
2012,04,10,04,15,8.80
2012,04,10,04,16,8.80
2012,04,10,04,17,8.80
2012,04,10,04,18,8.80
2012,04,10,04,19,8.80
2012,04,10,04,20,8.80
2012,04,10,04,21,8.70
2012,04,10,04,22,8.70
2012,04,10,04,23,8.70
2012,04,10,04,24,8.70
2012,04,10,04,25,8.70
2012,04,10,04,26,8.70
2012,04,10,04,27,8.70
2012,04,10,04,28,8.70
2012,04,10,04,29,8.60
2012,04,10,04,30,8.70
2012,04,10,04,31,8.70
2012,04,10,04,32,8.70
2012,04,10,04,33,8.70
2012,04,10,04,34,8.70
2012,04,10,04,35,8.70
2012,04,10,04,36,8.60
2012,04,10,04,37,8.60
2012,04,10,04,38,8.60
2012,04,10,04,39,8.60
2012,04,10,04,40,8.60
2012,04,10,04,41,8.60
2012,04,10,04,42,8.60
2012,04,10,04,43,8.60
2012,04,10,04,44,8.60
2012,04,10,04,45,8.50
2012,04,10,04,46,8.50
2012,04,10,04,47,8.50
2012,04,10,04,48,8.50
2012,04,10,04,49,8.50
2012,04,10,04,50,8.50
2012,04,10,04,51,8.50
2012,04,10,04,52,8.50
2012,04,10,04,53,8.50
2012,04,10,04,54,8.50
2012,04,10,04,55,8.60
2012,04,10,04,56,8.60
2012,04,10,04,57,8.60
2012,04,10,04,58,8.60
2012,04,10,04,59,8.60
2012,04,10,05,00,8.60
2012,04,10,05,01,8.60
2012,04,10,05,02,8.50
2012,04,10,05,03,8.50
2012,04,10,05,04,8.50
2012,04,10,05,05,8.50
2012,04,10,05,06,8.40
2012,04,10,05,07,8.40
2012,04,10,05,08,8.40
2012,04,10,05,09,8.40
2012,04,10,05,10,8.30
2012,04,10,05,11,8.30
2012,04,10,05,12,8.30
2012,04,10,05,13,8.30
2012,04,10,05,14,8.30
2012,04,10,05,15,8.20
2012,04,10,05,16,8.20
2012,04,10,05,17,8.20
2012,04,10,05,18,8.20
2012,04,10,05,19,8.20
2012,04,10,05,20,8.20
2012,04,10,05,21,8.20
2012,04,10,05,22,8.10
2012,04,10,05,23,8.10
2012,04,10,05,24,8.10
2012,04,10,05,25,8.10
2012,04,10,05,26,8.10
2012,04,10,05,27,8.10
2012,04,10,05,28,8.10
2012,04,10,05,29,8.00
2012,04,10,05,30,8.00
2012,04,10,05,31,8.00
2012,04,10,05,32,8.00
2012,04,10,05,33,8.00
2012,04,10,05,34,8.00
2012,04,10,05,35,8.00
2012,04,10,05,36,7.90
2012,04,10,05,37,7.90
2012,04,10,05,38,7.90
2012,04,10,05,39,7.90
2012,04,10,05,40,7.90
2012,04,10,05,41,7.90
2012,04,10,05,42,7.90
2012,04,10,05,43,7.90
2012,04,10,05,44,7.90
2012,04,10,05,45,7.90
2012,04,10,05,46,7.90
2012,04,10,05,47,7.90
2012,04,10,05,48,7.90
2012,04,10,05,49,7.90
2012,04,10,05,50,7.90
2012,04,10,05,51,7.90
2012,04,10,05,52,7.90
2012,04,10,05,53,7.80
2012,04,10,05,54,7.80
2012,04,10,05,55,7.80
2012,04,10,05,56,7.80
2012,04,10,05,57,7.80
2012,04,10,05,58,7.80
2012,04,10,05,59,7.80
2012,04,10,06,00,7.80
2012,04,10,06,01,7.80
2012,04,10,06,02,7.80
2012,04,10,06,03,7.80
2012,04,10,06,04,7.80
2012,04,10,06,05,7.80
2012,04,10,06,06,7.80
2012,04,10,06,07,7.80
2012,04,10,06,08,7.70
2012,04,10,06,09,7.70
2012,04,10,06,10,7.70
2012,04,10,06,11,7.70
2012,04,10,06,12,7.70
2012,04,10,06,13,7.70
2012,04,10,06,14,7.70
2012,04,10,06,15,7.70
2012,04,10,06,16,7.70
2012,04,10,06,17,7.70
2012,04,10,06,18,7.70
2012,04,10,06,19,7.70
2012,04,10,06,20,7.70
2012,04,10,06,21,7.70
2012,04,10,06,22,7.70
2012,04,10,06,23,7.70
2012,04,10,06,24,7.70
2012,04,10,06,25,7.70
2012,04,10,06,26,7.70
2012,04,10,06,27,7.70
2012,04,10,06,28,7.70
2012,04,10,06,29,7.70
2012,04,10,06,30,7.70
2012,04,10,06,31,7.70
2012,04,10,06,32,7.70
2012,04,10,06,33,7.70
2012,04,10,06,34,7.80
2012,04,10,06,35,7.80
2012,04,10,06,36,7.80
2012,04,10,06,37,7.80
2012,04,10,06,38,7.80
2012,04,10,06,39,7.70
2012,04,10,06,40,7.70
2012,04,10,06,41,7.70
2012,04,10,06,42,7.70
2012,04,10,06,43,7.70
2012,04,10,06,44,7.70
2012,04,10,06,45,7.70
2012,04,10,06,46,7.70
2012,04,10,06,47,7.70
2012,04,10,06,48,7.70
2012,04,10,06,49,7.70
2012,04,10,06,50,7.70
2012,04,10,06,51,7.70
2012,04,10,06,52,7.70
2012,04,10,06,53,7.70
2012,04,10,06,54,7.70
2012,04,10,06,55,7.70
2012,04,10,06,56,7.70
2012,04,10,06,57,7.70
2012,04,10,06,58,7.70
2012,04,10,06,59,7.70
2012,04,10,07,00,7.70
2012,04,10,07,01,7.70
2012,04,10,07,02,7.70
2012,04,10,07,03,7.70
2012,04,10,07,04,7.80
2012,04,10,07,05,7.80
2012,04,10,07,06,7.80
2012,04,10,07,07,7.80
2012,04,10,07,08,7.80
2012,04,10,07,09,7.80
2012,04,10,07,10,7.80
2012,04,10,07,11,7.80
2012,04,10,07,12,7.80
2012,04,10,07,13,7.80
2012,04,10,07,14,7.80
2012,04,10,07,15,7.80
2012,04,10,07,16,7.80
2012,04,10,07,17,7.90
2012,04,10,07,18,7.90
2012,04,10,07,19,7.90
2012,04,10,07,20,7.90
2012,04,10,07,21,7.90
2012,04,10,07,22,7.90
2012,04,10,07,23,7.90
2012,04,10,07,24,7.90
2012,04,10,07,25,8.00
2012,04,10,07,26,8.00
2012,04,10,07,27,8.00
2012,04,10,07,28,8.00
2012,04,10,07,29,8.00
2012,04,10,07,30,8.00
2012,04,10,07,31,8.10
2012,04,10,07,32,8.10
2012,04,10,07,33,8.10
2012,04,10,07,34,8.10
2012,04,10,07,35,8.20
2012,04,10,07,36,8.20
2012,04,10,07,37,8.20
2012,04,10,07,38,8.30
2012,04,10,07,39,8.30
2012,04,10,07,40,8.30
2012,04,10,07,41,8.40
2012,04,10,07,42,8.40
2012,04,10,07,43,8.50
2012,04,10,07,44,8.50
2012,04,10,07,45,8.60
2012,04,10,07,46,8.60
2012,04,10,07,47,8.70
2012,04,10,07,48,8.70
2012,04,10,07,49,8.80
2012,04,10,07,50,8.90
2012,04,10,07,51,9.00
2012,04,10,07,52,9.10
2012,04,10,07,53,9.20
2012,04,10,07,54,9.30
2012,04,10,07,55,9.40
2012,04,10,07,56,9.40
2012,04,10,07,57,9.50
2012,04,10,07,58,9.50
2012,04,10,07,59,9.60
2012,04,10,08,00,9.60
2012,04,10,08,01,9.60
2012,04,10,08,02,9.60
2012,04,10,08,03,9.60
2012,04,10,08,04,9.60
2012,04,10,08,05,9.60
2012,04,10,08,06,9.70
2012,04,10,08,07,9.70
2012,04,10,08,08,9.70
2012,04,10,08,09,9.70
2012,04,10,08,10,9.70
2012,04,10,08,11,9.70
2012,04,10,08,12,9.70
2012,04,10,08,13,9.70
2012,04,10,08,14,9.70
2012,04,10,08,15,9.70
2012,04,10,08,16,9.70
2012,04,10,08,17,9.70
2012,04,10,08,18,9.70
2012,04,10,08,19,9.70
2012,04,10,08,20,9.70
2012,04,10,08,21,9.70
2012,04,10,08,22,9.70
2012,04,10,08,23,9.70
2012,04,10,08,24,9.70
2012,04,10,08,25,9.70
2012,04,10,08,26,9.80
2012,04,10,08,27,9.80
2012,04,10,08,28,9.80
2012,04,10,08,29,9.80
2012,04,10,08,30,9.90
2012,04,10,08,31,9.90
2012,04,10,08,32,9.90
2012,04,10,08,33,9.90
2012,04,10,08,34,9.90
2012,04,10,08,35,10.00
2012,04,10,08,36,10.00
2012,04,10,08,37,10.00
2012,04,10,08,38,10.00
2012,04,10,08,39,9.90
2012,04,10,08,40,9.90
2012,04,10,08,41,9.90
2012,04,10,08,42,9.90
2012,04,10,08,43,9.90
2012,04,10,08,44,9.90
2012,04,10,08,45,9.90
2012,04,10,08,46,9.90
2012,04,10,08,47,9.90
2012,04,10,08,48,9.90
2012,04,10,08,49,9.90
2012,04,10,08,50,9.90
2012,04,10,08,51,9.90
2012,04,10,08,52,9.90
2012,04,10,08,53,9.90
2012,04,10,08,54,9.90
2012,04,10,08,55,9.90
2012,04,10,08,56,9.90
2012,04,10,08,57,9.90
2012,04,10,08,58,10.00
2012,04,10,08,59,10.00
2012,04,10,09,00,10.00
2012,04,10,09,01,10.00
2012,04,10,09,02,10.10
2012,04,10,09,03,10.10
2012,04,10,09,04,10.10
2012,04,10,09,05,10.10
2012,04,10,09,06,10.20
2012,04,10,09,07,10.20
2012,04,10,09,08,10.20
2012,04,10,09,09,10.20
2012,04,10,09,10,10.30
2012,04,10,09,11,10.30
2012,04,10,09,12,10.30
2012,04,10,09,13,10.40
2012,04,10,09,14,10.40
2012,04,10,09,15,10.40
2012,04,10,09,16,10.40
2012,04,10,09,17,10.40
2012,04,10,09,18,10.50
2012,04,10,09,19,10.50
2012,04,10,09,20,10.50
2012,04,10,09,21,10.50
2012,04,10,09,22,10.60
2012,04,10,09,23,10.60
2012,04,10,09,24,10.60
2012,04,10,09,25,10.60
2012,04,10,09,26,10.60
2012,04,10,09,27,10.70
2012,04,10,09,28,10.70
2012,04,10,09,29,10.70
2012,04,10,09,30,10.70
2012,04,10,09,31,10.70
2012,04,10,09,32,10.80
2012,04,10,09,33,10.80
2012,04,10,09,34,10.80
2012,04,10,09,35,10.80
2012,04,10,09,36,10.90
2012,04,10,09,37,10.90
2012,04,10,09,38,11.00
2012,04,10,09,39,11.00
2012,04,10,09,40,11.10
2012,04,10,09,41,11.10
2012,04,10,09,42,11.20
2012,04,10,09,43,11.20
2012,04,10,09,44,11.20
2012,04,10,09,45,11.30
2012,04,10,09,46,11.30
2012,04,10,09,47,11.30
2012,04,10,09,48,11.30
2012,04,10,09,49,11.30
2012,04,10,09,50,11.30
2012,04,10,09,51,11.40
2012,04,10,09,52,11.40
2012,04,10,09,53,11.40
2012,04,10,09,54,11.40
2012,04,10,09,55,11.40
2012,04,10,09,56,11.50
2012,04,10,09,57,11.50
2012,04,10,09,58,11.50
2012,04,10,09,59,11.50
2012,04,10,10,00,11.50
2012,04,10,10,01,11.60
2012,04,10,10,02,11.60
2012,04,10,10,03,11.60
2012,04,10,10,04,11.60
2012,04,10,10,05,11.60
2012,04,10,10,06,11.60
2012,04,10,10,07,11.70
2012,04,10,10,08,11.70
2012,04,10,10,09,11.70
2012,04,10,10,10,11.70
2012,04,10,10,11,11.70
2012,04,10,10,12,11.70
2012,04,10,10,13,11.70
2012,04,10,10,14,11.70
2012,04,10,10,15,11.70
2012,04,10,10,16,11.70
2012,04,10,10,17,11.70
2012,04,10,10,18,11.70
2012,04,10,10,19,11.70
2012,04,10,10,20,11.70
2012,04,10,10,21,11.70
2012,04,10,10,22,11.70
2012,04,10,10,23,11.70
2012,04,10,10,24,11.70
2012,04,10,10,25,11.70
2012,04,10,10,26,11.70
2012,04,10,10,27,11.70
2012,04,10,10,28,11.70
2012,04,10,10,29,11.70
2012,04,10,10,30,11.70
2012,04,10,10,31,11.80
2012,04,10,10,32,11.80
2012,04,10,10,33,11.80
2012,04,10,10,34,11.80
2012,04,10,10,35,11.80
2012,04,10,10,36,11.90
2012,04,10,10,37,11.90
2012,04,10,10,38,11.90
2012,04,10,10,39,11.90
2012,04,10,10,40,11.90
2012,04,10,10,41,11.90
2012,04,10,10,42,12.00
2012,04,10,10,43,12.00
2012,04,10,10,44,12.00
2012,04,10,10,45,12.10
2012,04,10,10,46,12.10
2012,04,10,10,47,12.10
2012,04,10,10,48,12.10
2012,04,10,10,49,12.10
2012,04,10,10,50,12.10
2012,04,10,10,51,12.10
2012,04,10,10,52,12.10
2012,04,10,10,53,12.10
2012,04,10,10,54,12.10
2012,04,10,10,55,12.10
2012,04,10,10,56,12.20
2012,04,10,10,57,12.20
2012,04,10,10,58,12.10
2012,04,10,10,59,12.10
2012,04,10,11,00,12.10
2012,04,10,11,01,12.10
2012,04,10,11,02,12.10
2012,04,10,11,03,12.10
2012,04,10,11,04,12.10
2012,04,10,11,05,12.10
2012,04,10,11,06,12.20
2012,04,10,11,07,12.20
2012,04,10,11,08,12.20
2012,04,10,11,09,12.20
2012,04,10,11,10,12.30
2012,04,10,11,11,12.30
2012,04,10,11,12,12.40
2012,04,10,11,13,12.50
2012,04,10,11,14,12.50
2012,04,10,11,15,12.60
2012,04,10,11,16,12.70
2012,04,10,11,17,12.70
2012,04,10,11,18,12.70
2012,04,10,11,19,12.80
2012,04,10,11,20,12.80
2012,04,10,11,21,12.80
2012,04,10,11,22,12.80
2012,04,10,11,23,12.80
2012,04,10,11,24,12.90
2012,04,10,11,25,13.00
2012,04,10,11,26,13.00
2012,04,10,11,27,13.10
2012,04,10,11,28,13.10
2012,04,10,11,29,13.20
2012,04,10,11,30,13.20
2012,04,10,11,31,13.30
2012,04,10,11,32,13.30
2012,04,10,11,33,13.30
2012,04,10,11,34,13.30
2012,04,10,11,35,13.40
2012,04,10,11,36,13.50
2012,04,10,11,37,13.60
2012,04,10,11,38,13.60
2012,04,10,11,39,13.70
2012,04,10,11,40,13.70
2012,04,10,11,41,13.80
2012,04,10,11,42,13.90
2012,04,10,11,43,13.90
2012,04,10,11,44,13.90
2012,04,10,11,45,14.00
2012,04,10,11,46,14.00
2012,04,10,11,47,14.10
2012,04,10,11,48,14.20
2012,04,10,11,49,14.30
2012,04,10,11,50,14.40
2012,04,10,11,51,14.40
2012,04,10,11,52,14.40
2012,04,10,11,53,14.40
2012,04,10,11,54,14.50
2012,04,10,11,55,14.50
2012,04,10,11,56,14.60
2012,04,10,11,57,14.60
2012,04,10,11,58,14.70
2012,04,10,11,59,14.50
2012,04,10,12,00,14.30
2012,04,10,12,01,14.10
2012,04,10,12,02,14.10
2012,04,10,12,03,14.00
2012,04,10,12,04,14.10
2012,04,10,12,05,14.10
2012,04,10,12,06,14.10
2012,04,10,12,07,14.10
2012,04,10,12,08,14.10
2012,04,10,12,09,14.00
2012,04,10,12,10,13.90
2012,04,10,12,11,13.90
2012,04,10,12,12,13.80
2012,04,10,12,13,13.80
2012,04,10,12,14,13.70
2012,04,10,12,15,13.60
2012,04,10,12,16,13.50
2012,04,10,12,17,13.40
2012,04,10,12,18,13.30
2012,04,10,12,19,13.20
2012,04,10,12,20,13.20
2012,04,10,12,21,13.20
2012,04,10,12,22,13.20
2012,04,10,12,23,13.20
2012,04,10,12,24,13.20
2012,04,10,12,25,13.30
2012,04,10,12,26,13.30
2012,04,10,12,27,13.30
2012,04,10,12,28,13.20
2012,04,10,12,29,13.20
2012,04,10,12,30,13.20
2012,04,10,12,31,13.20
2012,04,10,12,32,13.30
2012,04,10,12,33,13.30
2012,04,10,12,34,13.30
2012,04,10,12,35,13.20
2012,04,10,12,36,13.20
2012,04,10,12,37,13.20
2012,04,10,12,38,13.20
2012,04,10,12,39,13.20
2012,04,10,12,40,13.20
2012,04,10,12,41,13.20
2012,04,10,12,42,13.30
2012,04,10,12,43,13.30
2012,04,10,12,44,13.30
2012,04,10,12,45,13.30
2012,04,10,12,46,13.40
2012,04,10,12,47,13.50
2012,04,10,12,48,13.70
2012,04,10,12,49,13.70
2012,04,10,12,50,13.70
2012,04,10,12,51,13.70
2012,04,10,12,52,13.60
2012,04,10,12,53,13.50
2012,04,10,12,54,13.40
2012,04,10,12,55,13.40
2012,04,10,12,56,13.50
2012,04,10,12,57,13.60
2012,04,10,12,58,13.70
2012,04,10,12,59,13.70
2012,04,10,13,00,13.50
2012,04,10,13,01,13.40
2012,04,10,13,02,13.30
2012,04,10,13,03,13.30
2012,04,10,13,04,13.30
2012,04,10,13,05,13.40
2012,04,10,13,06,13.40
2012,04,10,13,07,13.30
2012,04,10,13,08,13.30
2012,04,10,13,09,13.30
2012,04,10,13,10,13.30
2012,04,10,13,11,13.20
2012,04,10,13,12,13.30
2012,04,10,13,13,13.40
2012,04,10,13,14,13.50
2012,04,10,13,15,13.60
2012,04,10,13,16,13.70
2012,04,10,13,17,13.80
2012,04,10,13,18,13.80
2012,04,10,13,19,13.80
2012,04,10,13,20,13.80
2012,04,10,13,21,13.80
2012,04,10,13,22,13.90
2012,04,10,13,23,13.90
2012,04,10,13,24,13.90
2012,04,10,13,25,13.80
2012,04,10,13,26,13.80
2012,04,10,13,27,13.80
2012,04,10,13,28,13.80
2012,04,10,13,29,13.70
2012,04,10,13,30,13.70
2012,04,10,13,31,13.70
2012,04,10,13,32,13.60
2012,04,10,13,33,13.60
2012,04,10,13,34,13.70
2012,04,10,13,35,13.70
2012,04,10,13,36,13.80
2012,04,10,13,37,13.80
2012,04,10,13,38,13.90
2012,04,10,13,39,13.90
2012,04,10,13,40,14.00
2012,04,10,13,41,14.00
2012,04,10,13,42,14.10
2012,04,10,13,43,14.00
2012,04,10,13,44,13.80
2012,04,10,13,45,13.80
2012,04,10,13,46,13.80
2012,04,10,13,47,13.80
2012,04,10,13,48,13.90
2012,04,10,13,49,13.90
2012,04,10,13,50,13.90
2012,04,10,13,51,13.90
2012,04,10,13,52,13.80
2012,04,10,13,53,13.80
2012,04,10,13,54,13.80
2012,04,10,13,55,13.80
2012,04,10,13,56,13.70
2012,04,10,13,57,13.60
2012,04,10,13,58,13.50
2012,04,10,13,59,13.50
2012,04,10,14,00,13.60
2012,04,10,14,01,13.70
2012,04,10,14,02,13.90
2012,04,10,14,03,14.00
2012,04,10,14,04,14.00
2012,04,10,14,05,14.00
2012,04,10,14,06,14.10
2012,04,10,14,07,14.10
2012,04,10,14,08,14.10
2012,04,10,14,09,14.10
2012,04,10,14,10,14.10
2012,04,10,14,11,14.30
2012,04,10,14,12,14.40
2012,04,10,14,13,14.60
2012,04,10,14,14,14.80
2012,04,10,14,15,14.90
2012,04,10,14,16,15.00
2012,04,10,14,17,15.00
2012,04,10,14,18,15.00
2012,04,10,14,19,15.00
2012,04,10,14,20,14.90
2012,04,10,14,21,14.90
2012,04,10,14,22,15.00
2012,04,10,14,23,15.00
2012,04,10,14,24,15.00
2012,04,10,14,25,14.90
2012,04,10,14,26,14.80
2012,04,10,14,27,14.70
2012,04,10,14,28,14.80
2012,04,10,14,29,14.80
2012,04,10,14,30,14.80
2012,04,10,14,31,14.70
2012,04,10,14,32,14.70
2012,04,10,14,33,14.70
2012,04,10,14,34,14.70
2012,04,10,14,35,14.70
2012,04,10,14,36,14.70
2012,04,10,14,37,14.80
2012,04,10,14,38,14.80
2012,04,10,14,39,14.70
2012,04,10,14,40,14.70
2012,04,10,14,41,14.80
2012,04,10,14,42,14.90
2012,04,10,14,43,14.90
2012,04,10,14,44,14.90
2012,04,10,14,45,14.90
2012,04,10,14,46,15.00
2012,04,10,14,47,15.00
2012,04,10,14,48,15.10
2012,04,10,14,49,15.20
2012,04,10,14,50,15.30
2012,04,10,14,51,15.40
2012,04,10,14,52,15.40
2012,04,10,14,53,15.40
2012,04,10,14,54,15.30
2012,04,10,14,55,15.20
2012,04,10,14,56,15.20
2012,04,10,14,57,15.20
2012,04,10,14,58,15.30
2012,04,10,14,59,15.30
2012,04,10,15,00,15.20
2012,04,10,15,01,15.10
2012,04,10,15,02,15.00
2012,04,10,15,03,15.00
2012,04,10,15,04,15.00
2012,04,10,15,05,15.00
2012,04,10,15,06,15.00
2012,04,10,15,07,15.10
2012,04,10,15,08,15.30
2012,04,10,15,09,15.30
2012,04,10,15,10,15.40
2012,04,10,15,11,15.40
2012,04,10,15,12,15.40
2012,04,10,15,13,15.40
2012,04,10,15,14,15.30
2012,04,10,15,15,15.20
2012,04,10,15,16,15.10
2012,04,10,15,17,15.00
2012,04,10,15,18,15.00
2012,04,10,15,19,15.00
2012,04,10,15,20,15.00
2012,04,10,15,21,14.90
2012,04,10,15,22,14.80
2012,04,10,15,23,14.80
2012,04,10,15,24,14.90
2012,04,10,15,25,14.90
2012,04,10,15,26,14.80
2012,04,10,15,27,14.90
2012,04,10,15,28,15.00
2012,04,10,15,29,15.00
2012,04,10,15,30,15.00
2012,04,10,15,31,15.00
2012,04,10,15,32,15.00
2012,04,10,15,33,15.00
2012,04,10,15,34,15.10
2012,04,10,15,35,15.00
2012,04,10,15,36,15.00
2012,04,10,15,37,14.90
2012,04,10,15,38,14.80
2012,04,10,15,39,14.80
2012,04,10,15,40,14.80
2012,04,10,15,41,14.80
2012,04,10,15,42,14.80
2012,04,10,15,43,14.80
2012,04,10,15,44,14.80
2012,04,10,15,45,15.00
2012,04,10,15,46,15.00
2012,04,10,15,47,15.00
2012,04,10,15,48,15.00
2012,04,10,15,49,15.00
2012,04,10,15,50,15.00
2012,04,10,15,51,15.00
2012,04,10,15,52,15.00
2012,04,10,15,53,15.00
2012,04,10,15,54,15.00
2012,04,10,15,55,15.00
2012,04,10,15,56,15.00
2012,04,10,15,57,15.00
2012,04,10,15,58,15.00
2012,04,10,15,59,15.00
2012,04,10,16,00,15.00
2012,04,10,16,01,14.90
2012,04,10,16,02,14.90
2012,04,10,16,03,14.90
2012,04,10,16,04,15.00
2012,04,10,16,05,15.00
2012,04,10,16,06,15.00
2012,04,10,16,07,14.90
2012,04,10,16,08,14.90
2012,04,10,16,09,14.80
2012,04,10,16,10,14.80
2012,04,10,16,11,14.70
2012,04,10,16,12,14.60
2012,04,10,16,13,14.50
2012,04,10,16,14,14.50
2012,04,10,16,15,14.60
2012,04,10,16,16,14.70
2012,04,10,16,17,14.60
2012,04,10,16,18,14.60
2012,04,10,16,19,14.60
2012,04,10,16,20,14.60
2012,04,10,16,21,14.70
2012,04,10,16,22,14.70
2012,04,10,16,23,14.60
2012,04,10,16,24,14.60
2012,04,10,16,25,14.60
2012,04,10,16,26,14.60
2012,04,10,16,27,14.60
2012,04,10,16,28,14.60
2012,04,10,16,29,14.60
2012,04,10,16,30,14.70
2012,04,10,16,31,14.70
2012,04,10,16,32,14.70
2012,04,10,16,33,14.80
2012,04,10,16,34,14.80
2012,04,10,16,35,14.90
2012,04,10,16,36,15.00
2012,04,10,16,37,15.00
2012,04,10,16,38,15.00
2012,04,10,16,39,15.00
2012,04,10,16,40,15.00
2012,04,10,16,41,15.10
2012,04,10,16,42,15.10
2012,04,10,16,43,15.20
2012,04,10,16,44,15.20
2012,04,10,16,45,15.20
2012,04,10,16,46,15.10
2012,04,10,16,47,15.00
2012,04,10,16,48,15.00
2012,04,10,16,49,15.00
2012,04,10,16,50,15.00
2012,04,10,16,51,15.00
2012,04,10,16,52,14.90
2012,04,10,16,53,14.80
2012,04,10,16,54,14.80
2012,04,10,16,55,14.70
2012,04,10,16,56,14.70
2012,04,10,16,57,14.60
2012,04,10,16,58,14.60
2012,04,10,16,59,14.60
2012,04,10,17,00,14.60
2012,04,10,17,01,14.60
2012,04,10,17,02,14.60
2012,04,10,17,03,14.60
2012,04,10,17,04,14.60
2012,04,10,17,05,14.60
2012,04,10,17,06,14.60
2012,04,10,17,07,14.60
2012,04,10,17,08,14.70
2012,04,10,17,09,14.70
2012,04,10,17,10,14.70
2012,04,10,17,11,14.70
2012,04,10,17,12,14.70
2012,04,10,17,13,14.70
2012,04,10,17,14,14.70
2012,04,10,17,15,14.80
2012,04,10,17,16,14.80
2012,04,10,17,17,14.80
2012,04,10,17,18,14.80
2012,04,10,17,19,14.90
2012,04,10,17,20,14.90
2012,04,10,17,21,14.90
2012,04,10,17,22,14.90
2012,04,10,17,23,15.00
2012,04,10,17,24,15.00
2012,04,10,17,25,15.00
2012,04,10,17,26,15.00
2012,04,10,17,27,15.00
2012,04,10,17,28,15.00
2012,04,10,17,29,15.00
2012,04,10,17,30,15.00
2012,04,10,17,31,15.00
2012,04,10,17,32,15.00
2012,04,10,17,33,15.00
2012,04,10,17,34,15.00
2012,04,10,17,35,15.00
2012,04,10,17,36,15.00
2012,04,10,17,37,15.00
2012,04,10,17,38,15.00
2012,04,10,17,39,15.00
2012,04,10,17,40,15.00